• In Hungary
  • List of Countries
  • For 7 days
  • Water Temperature
  • Satellite Maps
  • Weather Map
  • News
  • Weather Widgets
  • user-avatar
    Login

    Hourly Weather Cobija

    Today, 15 November, Thursday

    Time Temperature Precipitation Wind Pressure Humidity
    00:00 +24°C° 0 mm 1 mps 736 mmHg 95%
    01:00 +24°C° 0 mm 1 mps 736 mmHg 96%
    02:00 +24°C° 0 mm 1 mps 736 mmHg 97%
    03:00 +24°C° 0 mm 1 mps 736 mmHg 97%
    04:00 +24°C° 0 mm 1 mps 736 mmHg 98%
    05:00 +25°C° 0.2 mm 1 mps 737 mmHg 97%
    06:00 +25°C° 0.2 mm 1 mps 737 mmHg 95%
    07:00 +26°C° 0.2 mm 1 mps 738 mmHg 93%
    08:00 +26°C° 0.1 mm 1 mps 738 mmHg 91%
    09:00 +27°C° 0.1 mm 2 mps 738 mmHg 88%
    10:00 +27°C° 0.1 mm 2 mps 738 mmHg 86%
    11:00 +28°C° 0.5 mm 2 mps 738 mmHg 84%
    12:00 +29°C° 0.5 mm 2 mps 737 mmHg 82%
    13:00 +29°C° 0.5 mm 2 mps 737 mmHg 81%
    14:00 +29°C° 0.4 mm 2 mps 736 mmHg 81%
    15:00 +29°C° 0.4 mm 2 mps 736 mmHg 81%
    16:00 +29°C° 0.4 mm 1 mps 736 mmHg 81%
    17:00 +27°C° 0.1 mm 1 mps 736 mmHg 85%
    18:00 +26°C° 0.1 mm 1 mps 736 mmHg 90%
    19:00 +25°C° 0.1 mm 1 mps 736 mmHg 94%
    20:00 +23°C° 0 mm 0 mps 737 mmHg 96%
    21:00 +22°C° 0 mm 0 mps 737 mmHg 97%
    22:00 +22°C° 0 mm 0 mps 737 mmHg 98%
    23:00 +22°C° 0 mm 0 mps 737 mmHg 98%

    Tomorrow, 16 November, Friday

    Time Temperature Precipitation Wind Pressure Humidity
    00:00 +22°C° 0 mm 0 mps 737 mmHg 98%
    01:00 +22°C° 0 mm 0 mps 737 mmHg 98%
    02:00 +22°C° 0.1 mm 0 mps 737 mmHg 97%
    03:00 +22°C° 0.1 mm 0 mps 737 mmHg 96%
    04:00 +22°C° 0.1 mm 0 mps 736 mmHg 96%
    05:00 +23°C° 0 mm 0 mps 737 mmHg 94%
    06:00 +23°C° 0 mm 0 mps 738 mmHg 91%
    07:00 +24°C° 0 mm 0 mps 738 mmHg 89%
    08:00 +26°C° 0 mm 0 mps 738 mmHg 79%
    09:00 +28°C° 0 mm 0 mps 739 mmHg 68%
    10:00 +31°C° 0 mm 0 mps 739 mmHg 58%
    11:00 +32°C° 0 mm 0 mps 738 mmHg 53%
    12:00 +32°C° 0 mm 0 mps 737 mmHg 49%
    13:00 +35°C° 0 mm 1 mps 736 mmHg 45%
    14:00 +33°C° 0 mm 0 mps 736 mmHg 48%
    15:00 +32°C° 0 mm 0 mps 735 mmHg 51%
    16:00 +32°C° 0 mm 0 mps 734 mmHg 54%
    17:00 +30°C° 0 mm 0 mps 735 mmHg 61%
    18:00 +27°C° 0 mm 0 mps 735 mmHg 68%
    19:00 +25°C° 0 mm 0 mps 735 mmHg 75%
    20:00 +25°C° 0 mm 0 mps 736 mmHg 77%
    21:00 +24°C° 0 mm 0 mps 736 mmHg 80%
    22:00 +24°C° 0 mm 0 mps 737 mmHg 82%
    23:00 +24°C° 0 mm 0 mps 736 mmHg 84%

    Day after tomorrow, 17 November, Saturday

    Time Temperature Precipitation Wind Pressure Humidity
    00:00 +23°C° 0 mm 0 mps 736 mmHg 86%
    01:00 +23°C° 0 mm 0 mps 735 mmHg 88%
    02:00 +23°C° 0 mm 0 mps 735 mmHg 89%
    03:00 +23°C° 0 mm 0 mps 735 mmHg 89%
    04:00 +22°C° 0 mm 0 mps 735 mmHg 90%
    05:00 +24°C° 0 mm 0 mps 736 mmHg 86%
    06:00 +25°C° 0 mm 0 mps 736 mmHg 81%
    07:00 +26°C° 0 mm 0 mps 737 mmHg 77%
    08:00 +29°C° 0 mm 0 mps 737 mmHg 66%
    09:00 +32°C° 0 mm 0 mps 737 mmHg 55%
    10:00 +37°C° 0 mm 1 mps 737 mmHg 45%
    11:00 +36°C° 0 mm 1 mps 736 mmHg 45%
    12:00 +36°C° 0 mm 1 mps 735 mmHg 45%
    13:00 +36°C° 0 mm 1 mps 734 mmHg 46%
    14:00 +36°C° 0 mm 1 mps 734 mmHg 47%
    15:00 +35°C° 0 mm 1 mps 733 mmHg 49%
    16:00 +35°C° 0 mm 1 mps 733 mmHg 51%
    17:00 +34°C° 0 mm 1 mps 733 mmHg 56%
    18:00 +32°C° 0 mm 1 mps 734 mmHg 61%
    19:00 +28°C° 0 mm 0 mps 734 mmHg 66%
    20:00 +29°C° 0.4 mm 1 mps 735 mmHg 71%
    21:00 +28°C° 0.4 mm 1 mps 735 mmHg 76%
    22:00 +28°C° 0.4 mm 1 mps 735 mmHg 81%
    23:00 +27°C° 0 mm 1 mps 735 mmHg 83%

    18 November, Sunday

    Time Temperature Precipitation Wind Pressure Humidity
    00:00 +27°C° 0 mm 1 mps 735 mmHg 84%
    01:00 +26°C° 0 mm 1 mps 734 mmHg 86%
    02:00 +26°C° 0.3 mm 1 mps 734 mmHg 89%
    03:00 +24°C° 0.3 mm 0 mps 734 mmHg 91%
    04:00 +23°C° 0.3 mm 0 mps 734 mmHg 94%
    05:00 +24°C° 0.5 mm 0 mps 735 mmHg 93%
    06:00 +25°C° 0.5 mm 0 mps 736 mmHg 92%
    07:00 +26°C° 0.5 mm 0 mps 737 mmHg 90%
    08:00 +29°C° 1 mm 1 mps 737 mmHg 86%
    09:00 +31°C° 1 mm 1 mps 736 mmHg 81%
    10:00 +32°C° 1 mm 2 mps 736 mmHg 76%
    11:00 +34°C° 1 mm 2 mps 736 mmHg 72%
    12:00 +34°C° 1 mm 1 mps 735 mmHg 69%
    13:00 +34°C° 1 mm 1 mps 734 mmHg 65%
    14:00 +34°C° 1.1 mm 2 mps 734 mmHg 69%
    15:00 +32°C° 1.1 mm 2 mps 733 mmHg 72%
    16:00 +31°C° 1.1 mm 2 mps 733 mmHg 76%
    17:00 +30°C° 0.3 mm 1 mps 733 mmHg 82%
    18:00 +28°C° 0.3 mm 1 mps 734 mmHg 87%
    19:00 +27°C° 0.3 mm 1 mps 735 mmHg 92%
    20:00 +27°C° 0.1 mm 1 mps 735 mmHg 93%
    21:00 +27°C° 0.1 mm 1 mps 735 mmHg 93%
    22:00 +26°C° 0.1 mm 1 mps 736 mmHg 93%
    23:00 +26°C° 0.1 mm 1 mps 735 mmHg 93%

    19 November, Monday

    Time Temperature Precipitation Wind Pressure Humidity
    00:00 +26°C° 0.1 mm 1 mps 735 mmHg 94%
    01:00 +26°C° 0.1 mm 1 mps 735 mmHg 94%
    02:00 +24°C° 0.1 mm 0 mps 735 mmHg 94%
    03:00 +23°C° 0.1 mm 0 mps 735 mmHg 94%
    04:00 +23°C° 0.1 mm 0 mps 735 mmHg 94%
    05:00 +24°C° 0.5 mm 0 mps 736 mmHg 92%
    06:00 +25°C° 0.5 mm 0 mps 736 mmHg 90%
    07:00 +25°C° 0.5 mm 0 mps 737 mmHg 88%
    08:00 +28°C° 1.6 mm 1 mps 737 mmHg 90%
    09:00 +28°C° 1.6 mm 1 mps 738 mmHg 93%
    10:00 +28°C° 1.6 mm 1 mps 738 mmHg 95%
    11:00 +28°C° 1.3 mm 1 mps 737 mmHg 94%
    12:00 +28°C° 1.3 mm 2 mps 737 mmHg 94%
    13:00 +28°C° 1.3 mm 2 mps 736 mmHg 94%
    14:00 +27°C° 0.8 mm 1 mps 736 mmHg 93%
    15:00 +27°C° 0.8 mm 1 mps 736 mmHg 93%
    16:00 +27°C° 0.8 mm 1 mps 735 mmHg 92%
    17:00 +26°C° 0.6 mm 1 mps 736 mmHg 93%
    18:00 +25°C° 0.6 mm 1 mps 736 mmHg 95%
    19:00 +25°C° 0.6 mm 1 mps 737 mmHg 96%
    20:00 +23°C° 0.2 mm 0 mps 737 mmHg 97%
    21:00 +22°C° 0.2 mm 0 mps 738 mmHg 98%
    22:00 +22°C° 0.2 mm 0 mps 738 mmHg 98%
    23:00 +24°C° 0.3 mm 1 mps 737 mmHg 99%

    20 November, Tuesday

    Time Temperature Precipitation Wind Pressure Humidity
    00:00 +24°C° 0.3 mm 1 mps 737 mmHg 99%
    01:00 +24°C° 0.3 mm 1 mps 736 mmHg 99%
    02:00 +23°C° 0.6 mm 1 mps 736 mmHg 99%
    03:00 +23°C° 0.6 mm 1 mps 736 mmHg 99%
    04:00 +21°C° 0.6 mm 0 mps 736 mmHg 99%
    05:00 +22°C° 0.5 mm 0 mps 737 mmHg 98%
    06:00 +22°C° 0.5 mm 0 mps 737 mmHg 98%
    07:00 +24°C° 0.5 mm 1 mps 738 mmHg 97%
    08:00 +24°C° 1.2 mm 1 mps 738 mmHg 97%
    09:00 +25°C° 1.2 mm 1 mps 738 mmHg 97%
    10:00 +25°C° 1.2 mm 1 mps 739 mmHg 97%
    11:00 +25°C° 0.9 mm 1 mps 738 mmHg 97%
    12:00 +24°C° 0.9 mm 0 mps 737 mmHg 96%
    13:00 +24°C° 0.9 mm 0 mps 737 mmHg 96%
    14:00 +24°C° 0.1 mm 0 mps 736 mmHg 93%
    15:00 +25°C° 0.1 mm 0 mps 735 mmHg 90%
    16:00 +25°C° 0.1 mm 0 mps 735 mmHg 88%
    17:00 +24°C° 0 mm 0 mps 735 mmHg 91%
    18:00 +24°C° 0 mm 0 mps 736 mmHg 94%
    19:00 +23°C° 0 mm 0 mps 737 mmHg 97%
    20:00 +23°C° 0 mm 0 mps 737 mmHg 97%
    21:00 +23°C° 0 mm 0 mps 737 mmHg 96%
    22:00 +22°C° 0 mm 0 mps 738 mmHg 96%
    23:00 +22°C° 0 mm 0 mps 737 mmHg 96%
    Show more